Hourly Weather Roundup
Issued by NWS

Home | Current Version | Previous Version | Text Only | Print | Product List | Glossary On
Versions: 1 2 3 4 5 6 7 8 9 10 11 12 13 14 15 16 17 18 19 20 21 22 23 24 25 26 27 28 29 30 31 32 33 34 35 36 37 38 39 40 41 42 43 44 45 46 47 48 49 50
501
NZUS43 KILX 220810
HWRCRS

NWR Hourly Weather Roundup
National Weather Service Lincoln IL
200 AM CST SUN JAN 22 2017


CITY           SKY/WX    TMP DP  RH WIND       PRES   REMARKS
Champaign      CLEAR     48  43  82 NE8       29.55F
Lawrenceville  CLEAR     48  47  96 NE7       29.50F
Peoria         FOG       40  40 100 NE6       29.58F VSB 1/4
Springfield    PTCLDY    44  41  89 N8        29.54F
$$


CITY           SKY/WX    TMP DP  RH WIND       PRES   REMARKS
Bloomington    FOG       38  37  97 N9        29.58S VSB 1/4 WCI  31
Danville       HVY RAIN  46  45  97 NE3       29.53F
Decatur        CLEAR     41  40  96 NE9       29.53F
Effingham      CLEAR     50  50 100 N3        29.51F
Flora          CLEAR     51  49  91 N5        29.50F
Galesburg      FOG       31  31 100 CALM      29.58S VSB 1/4
Jacksonville   CLEAR     44  41  91 N7        29.54S
Lacon          CLOUDY    39  39 100 CALM      29.58F FOG
La Salle       FOG       38  37  99 CALM      29.60S VSB<1/4
Lincoln        PTCLDY    44  43  97 N8        29.56R
Litchfield     CLEAR     50  42  73 NE12      29.50S

CITY           SKY/WX    TMP DP  RH WIND       PRES   REMARKS
Macomb         FOG       35  35 100 NE3       29.59F VSB 1/4
Mattoon        FOG       46  45  96 NE6       29.51F VSB 3/4
Moline         CLOUDY    35  32  88 CALM      29.59R FOG
Olney          PTCLDY    50  50 100 CALM      29.50F
Paris          CLEAR     45  45 100 E3        29.54F
Pontiac        RAIN      40  40 100 N3        29.59S VSB 1/4
Quincy         CLEAR     40  39  97 NE9       29.54S FOG     WCI  34
Rantoul        CLEAR     45  43  93 NE5       29.56S
Robinson       PTCLDY    46  46  99 NE6       29.52F
Taylorville    CLEAR     49  42  77 NE9       29.52F
Terre Haute    CLEAR     46  44  93 N6        29.53F
$$


CITY           SKY/WX    TMP DP  RH WIND       PRES   REMARKS
Burlington     CLOUDY    35  35 100 N6        29.57F FOG     WCI  30
Chicago        CLOUDY    40  40 100 CALM      29.58S FOG
Des Moines     FOG       31  31 100 W3        29.59R VSB 1/4
Evansville     PTCLDY    51  46  83 E3        29.51S
Indianapolis   PTCLDY    49  47  93 E6        29.56F
Kansas City    CLOUDY    46  41  82 NE10      29.53S
Milwaukee      MOCLDY    41  38  89 SW5       29.58R
St Louis       MOCLDY    51  41  68 NE5       29.50S
$$





USA.gov is the U.S. government's official web portal to all federal, state and local government web resources and services.